Deer Park, WA

6:51 PM PST on February 24, 2017 (GMT -0800)
Deer Park

Weather History for KDEW - August, 2012

Change the Weather History Date:

Thursday, August 9, 2012

  Actual Average Record
Temperature  
Mean Temperature 64 °F 66 °F  
Max Temperature 86 °F 85 °F 96 °F (2000)
Min Temperature 42 °F 48 °F 41 °F (2007)
Degree Days  
Heating Degree Days 1 2  
Month to date heating degree days 6 14  
Since 1 June heating degree days 283 282  
Since 1 July heating degree days 47 82  
Cooling Degree Days 0 3  
Month to date cooling degree days 32 27  
Year to date cooling degree days 172 124  
Since 1 June cooling degree days 171 121  
Growing Degree Days 14 (Base 50)    
Moisture  
Dew Point 44 °F    
Average Humidity 52    
Maximum Humidity 83    
Minimum Humidity 20    
Precipitation  
Precipitation 0.00 in 0.02 in 0.09 in (2016)
Month to date precipitation 0.00 0.13  
Year to date precipitation 17.52 12.73  
Sea Level Pressure  
Sea Level Pressure 30.06 in    
Wind  
Wind Speed 2 mph (NE)    
Max Wind Speed 9 mph    
Max Gust Speed 13 mph    
Visibility 10 miles    
Events      
T = Trace of Precipitation, MM = Missing Value Source: NWS Daily Summary

Daily Weather History Graph

Daily Weather History Graph

Search for Another Location

Airport or City:

Trip Planner

Search our weather history database for the weather conditions in past years. The results will help you decide how hot, cold, wet, or windy it might be!

Date:

Astronomy

Aug. 09, 2012 Rise Set
Actual Time 5:37 AM PDT 8:12 PM PDT
Civil Twilight 5:02 AM PDT 8:46 PM PDT
Nautical Twilight 4:17 AM PDT 9:30 PM PDT
Astronomical Twilight 3:26 AM PDT 10:22 PM PDT
Moon 11:25 PM PDT (8/9) 2:04 PM PDT (8/9)
Length of Visible Light 15h 44m
Length of Day
14h 34m
Waning Gibbous, 50% of the Moon is Illuminated
Aug 9
Waning Gibbous
Aug 17
New
Aug 24
First Quarter
Aug 31
Full
Sep 8
Last Quarter

Hourly Weather History & Observations

Time (PDT) Temp. Windchill Dew Point Humidity Pressure Visibility Wind Dir Wind Speed Gust Speed Precip Events Conditions
12:53 AM 55.0 °F - 44.1 °F 67% 30.06 in 10.0 mi East 3.5 mph - N/A   Clear
1:53 AM 52.0 °F - 42.1 °F 69% 30.08 in 10.0 mi Calm Calm - N/A   Clear
2:53 AM 51.1 °F - 42.1 °F 71% 30.08 in 10.0 mi Calm Calm - N/A   Clear
3:53 AM 48.0 °F - 41.0 °F 77% 30.09 in 10.0 mi Calm Calm - N/A   Clear
4:53 AM 46.0 °F 44.8 °F 39.9 °F 79% 30.10 in 10.0 mi NNW 3.5 mph - N/A   Clear
5:53 AM 44.1 °F - 39.0 °F 82% 30.11 in 10.0 mi Calm Calm - N/A   Clear
6:53 AM 54.0 °F - 45.0 °F 72% 30.12 in 10.0 mi Calm Calm - N/A   Clear
7:53 AM 66.0 °F - 44.1 °F 45% 30.12 in 10.0 mi Calm Calm - N/A   Clear
8:53 AM 70.0 °F - 44.1 °F 39% 30.12 in 10.0 mi East 3.5 mph - N/A   Clear
10:53 AM 75.9 °F - 43.0 °F 31% 30.12 in 10.0 mi South 3.5 mph - N/A   Clear
11:53 AM 77.0 °F - 42.1 °F 29% 30.10 in 10.0 mi Calm Calm - N/A   Clear
12:53 PM 80.1 °F - 41.0 °F 25% 30.09 in 10.0 mi Calm Calm - N/A   Clear
1:53 PM 82.9 °F - 41.0 °F 23% 30.07 in 10.0 mi ESE 6.9 mph - N/A   Clear
2:53 PM 84.0 °F - 39.0 °F 20% 30.05 in 10.0 mi South 4.6 mph - N/A   Clear
3:53 PM 84.9 °F - 39.9 °F 20% 30.04 in 10.0 mi Calm Calm - N/A   Clear
4:53 PM 84.0 °F - 39.9 °F 21% 30.02 in 10.0 mi Calm Calm - N/A   Clear
5:53 PM 81.0 °F - 46.9 °F 30% 30.01 in 10.0 mi North 5.8 mph - N/A   Clear
6:53 PM 79.0 °F - 46.0 °F 31% 29.99 in 10.0 mi NNE 5.8 mph - N/A   Clear
7:53 PM 71.1 °F - 53.1 °F 53% 29.97 in 10.0 mi NNE 5.8 mph - N/A   Clear
8:53 PM 62.1 °F - 48.9 °F 62% 29.98 in 10.0 mi Calm Calm - N/A   Clear
9:53 PM 61.0 °F - 50.0 °F 67% 29.98 in 10.0 mi NW 4.6 mph - N/A   Clear
10:53 PM 55.0 °F - 48.0 °F 77% 29.98 in 10.0 mi NW 5.8 mph - N/A   Clear
11:53 PM 52.0 °F - 46.9 °F 83% 29.99 in 10.0 mi Calm Calm - N/A   Clear